JILIN-1 07 (43159 NORAD) Tracking and Keplerian Element Data

This shows tracking and keplerian element data for the satellite.

Feedback or suggestion? Click here.




ElementValue
Catalog43159
NameJILIN-1 07
Epoch Orbit43756
Epoch Day354.12421283
Epoch Year2025
RAAN14.0922
Inclination97.1921
Eccentricity0.0008489
Argument of Perigee353.7888
Mean Anonmoly6.3247
Mean Motion15.31313326
Decay Rate5.743E-05
L11 43159U 18008E 25354.12421283 .00005743 00000+0 19219-3 0 9994
L22 43159 97.1921 14.0922 0008489 353.7888 6.3247 15.31313326437567



Live tracking and technical data element details for JILIN-1 07 (NORAD 43159). JILIN-1 07 can be tracked NOW for your location showing map with azimuth and elevation plus other details from your city location.







IsCatalogInMostPopularTable: catalog: 43159, numindb: 414
Update: records affected: 1



GetName: 43159 JILIN-1 07

Hit Count: updated at: Thu, 16 Apr 2026 05:12:30 GMT